www.pogodaiklimat.ru

Погода и климат >> Архив погоды >> Коста-Рика >> Пуэрто-Лимон


ПОГОДА в Пуэрто-Лимоне

  • Прогноз погоды в Пуэрто-Лимоне
  • Монитор погоды в Пуэрто-Лимоне

АРХИВ ПОГОДЫ в Пуэрто-Лимоне

Время (UTC), дата Ветер
(напр.,м/с)
 
Видим.   Явления Облачность Т
(С)
Тd
(С)
f
(%)
Тe
(С)
Тes
(С)
Комфортность P
(гПа)
Po
(гПа)
Тmin
(С)
Tmax
(С)
R
(мм)
R24
(мм)
S
(см)
12 10.09 З 4 15 км осадки на расстоянии 8/0
[Ac As]
+31.1 +22.3 60 +31 +31 жарко 1012.6 1012.1 +22.3 +31.1
15 10.09 СЗ 5 15 км мгла 10/0
[Ac As Ci sp]
+28.4 +22.8 72 +38 +41 очень
душно
1013.9 1013.4
18 10.09 С 7 15 км мгла 9/0
[Ac As Cs]
+31.1 +22.3 60 +41 +45 опасность
перегрева
1013.1 1012.8 +22.3 +31.1
21 10.09 СЗ 4 15 км осадки на расстоянии 10/10 600 м
[Sc diur, vesp Ac cuf Ci sp]
+29.2 +24.7 77 +42 +43 опасность
перегрева
1010.5 1010.0
00 11.09 СВ 5 15 км осадки на расстоянии 10/10 600 м
[Sc diur, vesp Ac cuf]
+31.4 +22.3 59 1011.0
12 11.09 З 5 15 км осадки на расстоянии 10/6 300 м
[Cu med, cong Ac As]
+31.4 +23.1 61 +31 +31 жарко 1010.5 1010.0 +23.1 +31.4
15 11.09 З 5 15 км осадки на расстоянии 10/10 300 м
[Sc diur, vesp Ac und Cc]
+26.1 +23.5 86 +35 +36 очень
душно
1013.7 1013.1
18 11.09 ЮВ 4 15 км мгла 10/9 600 м
[Cb calv Ac cuf Ci sp]
+31.4 +23.1 61 +41 +45 опасность
перегрева
1011.3 1010.7 +23.1 +31.4
21 11.09 В 5 15 км мгла 10/0
[Ac As Ci]
+30.0 +23.6 69 +41 +44 опасность
перегрева
1009.6 1009.0
00 12.09 штиль 0 15 км мгла 10/10
[Cu med, cong Ac As Ci sp]
+30.9 +23.1 63 1009.2
12 12.09 ЮЗ 3 7000 м гроза без осадков 10/10 300 м
[Sc diur, vesp Ac und Cs]
+30.9 +23.4 64 +31 +32 жарко 1009.1 1008.7 +23.4 +30.9 41
15 12.09 Ю 4 10 км осадки на расстоянии {гроза, морось} 10/6 300 м
[Cb calv Ac und Cs]
+25.7 +24.1 91 +36 +37 очень
душно
1011.9 1011.4
18 12.09 СЗ 8 15 км осадки на расстоянии {морось} 9/9
[Cb calv Ac cuf Ci fib]
+30.9 +23.4 64 1010.6 3
21 12.09 СЗ 4 15 км осадки на расстоянии 10/10
[Sc diur, vesp Ac cuf Ci fib]
+27.2 +22.8 77 +36 +37 очень
душно
1008.5 1008.0
12 13.09 З 4 15 км осадки на расстоянии 9/0
[Ac As]
+29.3 +22.5 67 +31 +31 жарко 1010.2 1009.7 +22.5 +29.3
15 13.09 ЮЗ 3 15 км осадки на расстоянии 10/10 600 м
[Sc diur, vesp Ac cuf Ci sp]
+27.0 +23.3 80 +36 +38 очень
душно
1011.8 1011.4
18 13.09 ЮВ 2 15 км слаб. морось 10/10 300 м
[Sc diur, vesp Ac cuf]
+29.3 +22.5 67 +37 +40 очень
душно
1011.6 1011.1 +22.5 +29.3
21 13.09 З 6 10 км морось 10/10 300 м
[Sc diur, vesp Ac und Cc]
+25.0 +24.1 95 +34 +35 очень
душно
1008.3 1008.0
12 14.09 ЮЗ 5 15 км мгла 6/0
[Ac As]
+27.9 +21.6 69 +29 +29 жарко 1010.4 1010.0 +21.6 +27.9
15 14.09 СЗ 3 15 км мгла 6/0
[Ac As Ci sp]
+28.5 +22.1 68 +37 +46 очень
душно
1011.6 1011.1
18 14.09 С 8 15 км мгла 9/0
[Ac As Cs]
+27.9 +21.6 69 +39 +42 очень
душно
1010.8 1010.4 +21.6 +27.9
21 14.09 С 9 15 км мгла 10/0
[Ac As Ci]
+29.0 +24.6 77 +41 +42 опасность
перегрева
1009.8 1009.4
12 15.09 З 3 15 км осадки на расстоянии 10/6 300 м
[Cb calv Ac cuf]
+30.3 +23.7 68 +32 +32 жарко 1010.7 1010.4 +23.7 +30.3
15 15.09 ЮЗ 4 15 км осадки на расстоянии 9/8 300 м
[Cb calv Ac cuf]
+25.7 +23.9 90 +35 +38 очень
душно
1012.3 1011.7
18 15.09 ЮВ 6 8000 м дождь {морось} 10/10 300 м
[Sc diur, vesp Ac und Cc]
+30.3 +23.7 68 +35 +36 очень
душно
1011.2 1010.7 +23.7 +30.3 2
21 15.09 ЮЗ 5 15 км осадки на расстоянии {морось} 10/10 300 м
[Sc diur, vesp Ac und Cc]
+24.7 +23.4 92 +33 +34 очень
душно
1008.7 1008.4
12 16.09 ЮЗ 4 15 км мгла 10/9 300 м
[Cb calv Ac und Cc]
+28.5 +21.6 66 +29 +29 жарко 1012.8 1012.4 +21.6 +28.5
15 16.09 З 3 15 км слаб. морось 10/9 300 м
[Cb calv Ac und Cc]
+25.0 +22.9 88 +33 +36 очень
душно
1014.6 1014.1
18 16.09 С 8 15 км мгла 9/9
[Cb calv Ac cuf Ci sp]
+28.5 +21.6 66 +39 +40 очень
душно
1012.4 1012.1 +21.6 +28.5
21 16.09 СВ 5 15 км мгла 8/0
[Ac As Ci sp]
+28.8 +23.4 73 +39 +43 очень
душно
1010.6 1010.0

 

Местоположение метеостанции Пуэрто-Лимон (Коста-Рика): широта 10.00 долгота -83.05 высота над уровнем моря 3 м.

В архиве по умолчанию представлена погода в Пуэрто-Лимоне за последнюю неделю. Архивные данные за месяц целиком и за предыдущие месяцы, начиная с января 2011 года, Вы можете получить, выбрав интересующий диапазон дат из раскрывающегося списка и нажав кнопку "Ввод!".


*Определитесь, кто Вы:
робот инопланетянин человек

Внимание! Время в таблицах - всемирное. Для получения местного времени необходимо прибавить поправку, которая равна -6 ч.

Смотрите также архив погоды в соседних городах и на ближайших метеорологических станциях:

Погода в Сан-Хосе аэропорту (Коста-Рика) (119 км)
Погода в Сан-Хосе (Коста-Рика) (127 км)
Погода в Давиде (Панама) (191 км)
Погода в Блуфилдсе (Никарагуа) (236 км)
Погода в Либерии (Коста-Рика) (269 км)
Погода в Сантьяго (Панама) (314 км)
Погода на Острове Сан-Андрес (Колумбия) (322 км)
Погода в Ривасе (Никарагуа) (342 км)
Погода в Хуигальпе (Никарагуа) (345 км)
Погода в Манагуа (Никарагуа) (416 км)

Пояснения к столбцам:

Ветер - указаны скорость ветра в м/с - средняя за 10 мин, порывы в срок и между сроками (в фигурных скобках) и направление, откуда дует ветер: С - северный, СВ - северо-восточный, В - восточный, ЮВ - юго-восточный, Ю - южный, ЮЗ - юго-западный, З - западный, СЗ - северо-западный.
Видимость - горизонтальная дальность видимости в метрах или километрах. При видимости от 1 до 10 км при отсутствии осадков обычно наблюдается дымка, при ухудшении видимости до 1 км и менее - туман. В сухую погоду видимость может ухудшаться дымом, пылью или мглою.
Явления - указаны атмосферные явления, наблюдавшиеся в срок или в последний час перед сроком; фигурными скобками обозначены явления, наблюдавшиеся между сроками (за 1-3 часа до срока); квадратными скобками обозначены град или гололедные отложения с указанием их диаметра в мм.
Облачность - указаны через наклонную черту общая и нижняя облачность в баллах и высота нижней границы облаков в метрах; квадратными скобками обозначены формы облаков: Ci - перистые, Cs - перисто-слоистые, Cc - перисто-кучевые, Ac - высококучевые, As - высокослоистые, Sc - слоисто-кучевые, Ns - слоисто-дождевые, Cu - кучевые, Cb - кучево-дождевые. Подробнее классификацию облаков см. в Атласе облаков (PDF).
T - Температура воздуха - температура, измеренная на высоте 2 м над землей.
Td - Температура точки росы - температура, при понижении до которой содержащийся в воздухе водяной пар достигнет насыщения.
f - Относительная влажность воздуха - влажноcть воздуха, измеренная на высоте 2 м над землей.
Te - Эффективная температура - температура, которую ощущает одетый по сезону человек в тени. Характеристика душности погоды. При расчете учитывается влияние влажности воздуха и скорости ветра на теплоощущения человека.
Tes - Эффективная температура на солнце - температура, которую ощущает человек, с поправкой на солнечный нагрев. Характеристика знойности погоды. Зависит от высоты солнца над горизонтом, облачности и скорости ветра. Ночью, в пасмурную погоду, а также при ветре 12 м/с и более поправка равна нулю.
P - Атмосферное давление - приведенное к уровню моря атмосферное давление.
Po - Атмосферное давление - измеренное на уровне метеостанции атмосферное давление.
Tmin - Минимальная температура - минимум температуры воздуха на высоте 2 м над землей.
Tmax - Максимальная температура - максимум температуры воздуха на высоте 2 м над землей.
R - Количество осадков - Количество выпавших осадков за период времени, мм. При наведении курсора мыши на число - период времени, за который выпало указанное количество осадков.
R24 - Количество осадков - Количество выпавших осадков за 24 часа, мм.
S - Снежный покров - Высота снежного покрова, см. При наведении курсора мыши на число - состояние снежного покрова и степень покрытия местности в баллах.